Flag for Brazil Weather past 2 weeks in Santarém, Para, Brazil

Now
86 °F

Passing clouds.


Feels Like: 95 °F
Forecast: N/A
Wind: 3 mph from North

Location: Santarem-Aeroporto

Current Time: Mar 3, 2015 at 5:52:19 PM

Latest Report: Mar 3, 2015 at 5:00 PM


Visibility: N/A

Pressure: 29.74 "Hg

Humidity: 70%

Dew point: 75 °F

Location of SantarémLocation

Historic Weather in Santarém — Graph

°F

Santarém temperature yesterday

Maximum temperature yesterday: 86 °F (at 3:00 PM)
Minimum temperature yesterday: 73 °F (at 12:00 AM)
Average temperature yesterday: 77 °F

Past Weeks' High & Low Weather Summary

 TemperatureHumidityPressure
High90 °F (Feb 16, 5:00 PM)100% (Feb 18, 5:00 AM)29.95 "Hg (Feb 18, 5:00 AM)
Low36 °F (Feb 28, 5:00 AM)59% (Feb 16, 5:00 PM)29.71 "Hg (Feb 26, 6:00 PM)
Average79 °F88%29.85 "Hg
* Reported Feb 16 4:00 PM — Mar 3 4:00 PM, Santarém, Weather by CustomWeather, © 2015

Note: Actual official high and low records may vary slightly from our data, if they occured in-between our weather recording intervals... More about our weather records

Advertising

Santarém weather history for previous 24 hours

 ConditionsComfort  
Time TempWeatherWind HumidityBarometerVisibility
4:00 PM
Tue, Mar 3
84 °FPassing clouds.6 mph74%29.77 "HgN/A
3:00 PM82 °FPartly sunny.5 mph79%29.80 "HgN/A
2:00 PM81 °FBroken clouds.5 mph89%29.86 "HgN/A
1:00 PM79 °FLight rain. Broken clouds.6 mph89%29.89 "HgN/A
12:00 PM79 °FLight rain. Broken clouds.7 mph94%29.92 "Hg5 mi
11:00 AM77 °FLight rain. More clouds than sun.5 mph94%29.95 "Hg3 mi
10:00 AM77 °FRain. More clouds than sun.9 mph94%29.95 "Hg2 mi
9:00 AM77 °FLight rain. More clouds than sun.12 mph94%29.89 "Hg4 mi
8:00 AM75 °FLight rain. More clouds than sun.7 mph100%29.86 "Hg3 mi
7:00 AM75 °FLight rain. Mostly cloudy.7 mph94%29.86 "Hg4 mi
6:00 AM75 °FLight rain. Mostly cloudy.8 mph94%29.83 "HgN/A
5:00 AM75 °FLight rain. Mostly cloudy.7 mph94%29.83 "Hg4 mi
4:00 AM75 °FThunderstorms. Mostly cloudy.7 mph94%N/A2 mi
3:00 AM73 °FPassing clouds.3 mph100%29.83 "HgN/A
2:00 AM73 °FThunderstorms. Passing clouds.5 mph100%29.83 "HgN/A
1:00 AM73 °FThundershowers. Passing clouds.2 mph100%29.86 "HgN/A
12:00 AM73 °FPassing clouds.2 mph100%29.89 "HgN/A
11:00 PM
Mon, Mar 2
73 °FPassing clouds.No wind100%29.86 "HgN/A
10:00 PM75 °FThundershowers. Passing clouds.No wind94%29.86 "HgN/A
9:00 PM75 °FPassing clouds.No wind94%29.80 "HgN/A
8:00 PM75 °FPassing clouds.No wind100%29.77 "HgN/A
7:00 PM77 °FPassing clouds.3 mph94%29.74 "HgN/A
6:00 PM79 °FScattered clouds.No wind89%29.71 "HgN/A
5:00 PM81 °FScattered clouds.5 mph84%29.74 "HgN/A
Weather by CustomWeather, © 2015

See weather overviewHow to use our weather pages